DGANS EDFH-EDDF

Flight info

Callsign DGANS
Flight time 1h 9m
Altitude 7000
Route IDARO DCT OBIGA Z111 RAMOB IMCOM1A
Aircraft DA42/L-SDFGRY/C

Departure

Time 2026-05-07 15:43
Airport Frankfurt-Hahn Airport (EDFH)

Arrival

Time 2026-05-07 16:52
Airport Frankfurt Main Airport (EDDF)
Time Latitude Longitude Altitude Speed Heading
2026-05-07 15:33 49.94323 7.26470 1621 ft 0 kts 125°
2026-05-07 15:40 49.94346 7.26444 1622 ft 8 kts 330°
2026-05-07 15:41 49.94403 7.26475 1621 ft 10 kts 25°
2026-05-07 15:41 49.94454 7.26419 1620 ft 10 kts 307°
2026-05-07 15:41 49.94495 7.26330 1620 ft 10 kts 306°
2026-05-07 15:41 49.94531 7.26240 1621 ft 10 kts 302°
2026-05-07 15:42 49.94566 7.26154 1625 ft 9 kts 306°
2026-05-07 15:42 49.94560 7.26101 1623 ft 5 kts 246°
2026-05-07 15:42 49.94529 7.26058 1621 ft 18 kts 212°
2026-05-07 15:42 49.94239 7.25769 1629 ft 77 kts 212°
2026-05-07 15:43 49.93741 7.25292 1856 ft 85 kts 213°
2026-05-07 15:43 49.93233 7.24803 2290 ft 84 kts 212°
2026-05-07 15:43 49.92716 7.24321 2641 ft 93 kts 212°
2026-05-07 15:43 49.92132 7.23785 2981 ft 97 kts 210°
2026-05-07 15:44 49.91560 7.23313 3384 ft 94 kts 208°
2026-05-07 15:44 49.90999 7.22744 3703 ft 103 kts 216°
2026-05-07 15:44 49.90384 7.22026 3929 ft 117 kts 219°
2026-05-07 15:44 49.89823 7.21089 4197 ft 123 kts 249°
2026-05-07 15:45 49.89834 7.19788 4465 ft 126 kts 296°
2026-05-07 15:45 49.90462 7.18881 4752 ft 128 kts 338°
2026-05-07 15:45 49.91339 7.18563 5021 ft 132 kts 349°
2026-05-07 15:45 49.92254 7.18270 5281 ft 136 kts 347°
2026-05-07 15:46 49.94144 7.17539 5794 ft 143 kts 345°
2026-05-07 15:46 49.95110 7.17142 6052 ft 144 kts 345°
2026-05-07 15:46 49.96077 7.16742 6318 ft 144 kts 344°
2026-05-07 15:47 49.97054 7.16338 6571 ft 145 kts 344°
2026-05-07 15:47 49.98033 7.15932 6817 ft 146 kts 344°
2026-05-07 15:47 49.99003 7.15530 7034 ft 148 kts 343°
2026-05-07 15:47 50.00047 7.15096 7045 ft 161 kts 343°
2026-05-07 15:48 50.01181 7.14783 7049 ft 170 kts
2026-05-07 15:48 50.02311 7.15251 7235 ft 166 kts 25°
2026-05-07 15:48 50.03190 7.16360 7483 ft 162 kts 50°
2026-05-07 15:48 50.03690 7.17904 7744 ft 160 kts 75°
2026-05-07 15:49 50.03947 7.19585 7998 ft 159 kts 76°
2026-05-07 15:49 50.04210 7.21318 8044 ft 170 kts 76°
2026-05-07 15:49 50.04485 7.23160 8049 ft 179 kts 76°
2026-05-07 15:49 50.04765 7.25046 8048 ft 183 kts 76°
2026-05-07 15:50 50.05053 7.26994 8049 ft 186 kts 76°
2026-05-07 15:50 50.05347 7.28966 8049 ft 187 kts 76°
2026-05-07 15:50 50.05642 7.30949 8049 ft 188 kts 76°
2026-05-07 15:50 50.05938 7.32940 8050 ft 189 kts 76°
2026-05-07 15:51 50.06234 7.34934 8049 ft 189 kts 77°
2026-05-07 15:51 50.06525 7.36903 8048 ft 189 kts 76°
2026-05-07 15:51 50.06820 7.38901 8050 ft 189 kts 76°
2026-05-07 15:51 50.07116 7.40902 8048 ft 190 kts 76°
2026-05-07 15:52 50.07412 7.42907 8045 ft 190 kts 76°
2026-05-07 15:52 50.07709 7.44917 8046 ft 190 kts 76°
2026-05-07 15:52 50.08007 7.46937 8043 ft 191 kts 76°
2026-05-07 15:52 50.08302 7.48953 8044 ft 191 kts 76°
2026-05-07 15:53 50.08594 7.50944 8043 ft 191 kts 76°
2026-05-07 15:53 50.08891 7.52965 8040 ft 191 kts 76°
2026-05-07 15:53 50.09186 7.54988 8040 ft 191 kts 76°
2026-05-07 15:53 50.09483 7.57009 8040 ft 191 kts 76°
2026-05-07 15:54 50.09777 7.59031 8040 ft 191 kts 76°
2026-05-07 15:54 50.10073 7.61053 8037 ft 191 kts 76°
2026-05-07 15:54 50.10364 7.63048 8039 ft 191 kts 76°
2026-05-07 15:54 50.10657 7.65066 8037 ft 191 kts 75°
2026-05-07 15:55 50.10899 7.67100 8034 ft 192 kts 87°
2026-05-07 15:55 50.10683 7.69143 8040 ft 192 kts 111°
2026-05-07 15:55 50.10010 7.70933 8041 ft 192 kts 125°
2026-05-07 15:55 50.09254 7.72647 8039 ft 192 kts 125°
2026-05-07 15:56 50.08495 7.74362 8041 ft 192 kts 126°
2026-05-07 15:56 50.07735 7.76070 8035 ft 192 kts 126°
2026-05-07 15:56 50.06976 7.77775 8039 ft 191 kts 126°
2026-05-07 15:56 50.06219 7.79474 8033 ft 192 kts 125°
2026-05-07 15:57 50.05461 7.81178 8039 ft 191 kts 126°
2026-05-07 15:57 50.04702 7.82879 8037 ft 192 kts 126°
2026-05-07 15:57 50.03943 7.84583 8042 ft 191 kts 126°
2026-05-07 15:57 50.03191 7.86277 8041 ft 188 kts 125°
2026-05-07 15:58 50.02448 7.87940 8044 ft 186 kts 126°
2026-05-07 15:58 50.01719 7.89573 8043 ft 186 kts 126°
2026-05-07 15:58 50.00983 7.91218 8040 ft 185 kts 126°
2026-05-07 15:58 50.00248 7.92864 8046 ft 184 kts 125°
2026-05-07 15:59 49.99756 7.94692 8038 ft 185 kts 101°
2026-05-07 15:59 49.99782 7.96682 8034 ft 185 kts 76°
2026-05-07 15:59 50.00210 7.98563 8037 ft 184 kts 68°
2026-05-07 15:59 50.00662 8.00422 8040 ft 184 kts 68°
2026-05-07 16:00 50.01119 8.02292 8039 ft 184 kts 68°
2026-05-07 16:00 50.01576 8.04156 8042 ft 185 kts 68°
2026-05-07 16:00 50.02034 8.06026 8043 ft 185 kts 68°
2026-05-07 16:00 50.02281 8.07985 8046 ft 187 kts 90°
2026-05-07 16:01 50.02222 8.10006 8045 ft 187 kts 93°
2026-05-07 16:01 50.02138 8.12023 8044 ft 186 kts 93°
2026-05-07 16:01 50.02052 8.14033 8041 ft 186 kts 93°
2026-05-07 16:01 50.01964 8.16016 8044 ft 186 kts 93°
2026-05-07 16:02 50.01877 8.18022 8041 ft 186 kts 93°
2026-05-07 16:02 50.01788 8.20029 8030 ft 186 kts 93°
2026-05-07 16:02 50.01699 8.22035 8038 ft 186 kts 93°
2026-05-07 16:02 50.01610 8.24034 8039 ft 185 kts 93°
2026-05-07 16:03 50.01519 8.26034 8040 ft 186 kts 93°
2026-05-07 16:03 50.01429 8.28033 8048 ft 185 kts 93°
2026-05-07 16:03 50.01337 8.30032 8048 ft 185 kts 94°
2026-05-07 16:03 50.01247 8.32030 8051 ft 185 kts 93°
2026-05-07 16:04 50.01157 8.34003 8052 ft 185 kts 93°
2026-05-07 16:04 50.01065 8.36001 8053 ft 185 kts 93°
2026-05-07 16:04 50.00974 8.38006 8051 ft 186 kts 93°
2026-05-07 16:04 50.00880 8.40016 8057 ft 187 kts 94°
2026-05-07 16:05 50.00791 8.42027 8054 ft 187 kts 93°
2026-05-07 16:05 50.00699 8.44052 8052 ft 188 kts 93°
2026-05-07 16:05 50.00608 8.46070 8054 ft 187 kts 94°
2026-05-07 16:05 50.00515 8.48094 8056 ft 187 kts 93°
2026-05-07 16:06 50.00422 8.50109 8054 ft 187 kts 93°
2026-05-07 16:06 50.00326 8.52118 8055 ft 186 kts 94°
2026-05-07 16:06 50.00231 8.54122 8055 ft 186 kts 94°
2026-05-07 16:06 50.00137 8.56122 8055 ft 186 kts 93°
2026-05-07 16:07 50.00041 8.58130 8057 ft 186 kts 93°
2026-05-07 16:07 49.99947 8.60107 8059 ft 186 kts 93°
2026-05-07 16:07 49.99852 8.62109 8057 ft 186 kts 93°
2026-05-07 16:07 49.99757 8.64108 8056 ft 186 kts 94°
2026-05-07 16:08 49.99662 8.66114 8057 ft 186 kts 93°
2026-05-07 16:08 49.99566 8.68122 8056 ft 186 kts 94°
2026-05-07 16:08 49.99472 8.70133 8057 ft 186 kts 94°
2026-05-07 16:08 49.99379 8.72141 8059 ft 186 kts 94°
2026-05-07 16:09 49.99284 8.74161 8055 ft 187 kts 93°
2026-05-07 16:09 49.99189 8.76178 8051 ft 187 kts 94°
2026-05-07 16:09 49.99094 8.78190 8047 ft 186 kts 94°
2026-05-07 16:09 49.99000 8.80200 8046 ft 186 kts 93°
2026-05-07 16:10 49.98905 8.82206 8046 ft 186 kts 94°
2026-05-07 16:10 49.98811 8.84215 8005 ft 188 kts 94°
2026-05-07 16:10 49.98714 8.86261 7801 ft 196 kts 94°
2026-05-07 16:10 49.98614 8.88404 7599 ft 200 kts 94°
2026-05-07 16:11 49.98687 8.90561 7394 ft 201 kts 77°
2026-05-07 16:11 49.99024 8.92677 7192 ft 202 kts 74°
2026-05-07 16:11 49.99389 8.94788 6993 ft 202 kts 73°
2026-05-07 16:11 49.99753 8.96894 6793 ft 202 kts 73°
2026-05-07 16:12 50.00118 8.99004 6596 ft 202 kts 73°
2026-05-07 16:12 50.00482 9.01114 6395 ft 202 kts 73°
2026-05-07 16:12 50.00845 9.03219 6187 ft 201 kts 73°
2026-05-07 16:12 50.01209 9.05322 5982 ft 201 kts 73°
2026-05-07 16:13 50.01566 9.07380 5972 ft 193 kts 73°
2026-05-07 16:13 50.01908 9.09358 5967 ft 190 kts 73°
2026-05-07 16:13 50.02249 9.11341 5962 ft 189 kts 73°
2026-05-07 16:13 50.02589 9.13315 5955 ft 188 kts 73°
2026-05-07 16:14 50.02925 9.15260 5945 ft 185 kts 73°
2026-05-07 16:14 50.03258 9.17180 6004 ft 183 kts 74°
2026-05-07 16:14 50.03590 9.19087 6003 ft 183 kts 73°
2026-05-07 16:14 50.03917 9.20972 6004 ft 180 kts 73°
2026-05-07 16:15 50.04243 9.22857 6007 ft 181 kts 73°
2026-05-07 16:15 50.04568 9.24762 5999 ft 183 kts 73°
2026-05-07 16:15 50.04896 9.26687 6005 ft 185 kts 73°
2026-05-07 16:15 50.05228 9.28633 6009 ft 187 kts 74°
2026-05-07 16:16 50.05562 9.30594 6008 ft 188 kts 73°
2026-05-07 16:16 50.05784 9.31895 6011 ft 188 kts 73°
2026-05-07 16:16 50.06224 9.34510 6009 ft 188 kts 76°
2026-05-07 16:16 50.06107 9.36523 6004 ft 190 kts 113°
2026-05-07 16:17 50.05608 9.37630 6006 ft 189 kts 138°
2026-05-07 16:17 50.04443 9.38490 6009 ft 186 kts 175°
2026-05-07 16:17 50.03217 9.38134 6008 ft 178 kts 212°
2026-05-07 16:17 50.02413 9.36752 6005 ft 172 kts 249°
2026-05-07 16:18 50.02338 9.34948 6008 ft 169 kts 285°
2026-05-07 16:18 50.03004 9.33467 6008 ft 172 kts 318°
2026-05-07 16:18 50.03974 9.32373 6011 ft 172 kts 323°
2026-05-07 16:18 50.04957 9.31325 6009 ft 171 kts 323°
2026-05-07 16:19 50.05940 9.30284 6012 ft 171 kts 323°
2026-05-07 16:19 50.06930 9.29240 6011 ft 171 kts 323°
2026-05-07 16:19 50.07908 9.28212 6010 ft 172 kts 323°
2026-05-07 16:19 50.08903 9.27169 6007 ft 173 kts 323°
2026-05-07 16:20 50.09807 9.25957 5899 ft 176 kts 303°
2026-05-07 16:20 50.10393 9.24233 5653 ft 184 kts 294°
2026-05-07 16:20 50.10938 9.22409 5400 ft 187 kts 294°
2026-05-07 16:20 50.11485 9.20555 5140 ft 189 kts 294°
2026-05-07 16:21 50.12029 9.18693 4888 ft 189 kts 294°
2026-05-07 16:21 50.12570 9.16826 4551 ft 189 kts 293°
2026-05-07 16:21 50.13113 9.14953 4291 ft 190 kts 294°
2026-05-07 16:21 50.13354 9.12948 4026 ft 189 kts 272°
2026-05-07 16:22 50.13331 9.10920 3924 ft 183 kts 269°
2026-05-07 16:22 50.13284 9.08983 3920 ft 176 kts 269°
2026-05-07 16:22 50.13236 9.07101 3927 ft 172 kts 268°
2026-05-07 16:22 50.13189 9.05251 3928 ft 169 kts 269°
2026-05-07 16:23 50.13140 9.03422 3931 ft 168 kts 268°
2026-05-07 16:23 50.13089 9.01605 3938 ft 168 kts 269°
2026-05-07 16:23 50.13036 8.99793 3939 ft 167 kts 268°
2026-05-07 16:23 50.12992 8.97982 3944 ft 167 kts 270°
2026-05-07 16:24 50.12857 8.96185 3947 ft 168 kts 256°
2026-05-07 16:24 50.12502 8.94444 3951 ft 169 kts 252°
2026-05-07 16:24 50.12115 8.92721 3957 ft 168 kts 252°
2026-05-07 16:24 50.11708 8.91025 3958 ft 169 kts 251°
2026-05-07 16:25 50.11299 8.89310 3964 ft 170 kts 251°
2026-05-07 16:25 50.10889 8.87580 3966 ft 169 kts 251°
2026-05-07 16:25 50.10481 8.85857 3968 ft 169 kts 251°
2026-05-07 16:25 50.10072 8.84134 3897 ft 172 kts 251°
2026-05-07 16:26 50.09647 8.82340 3673 ft 181 kts 251°
2026-05-07 16:26 50.09206 8.80480 3434 ft 185 kts 251°
2026-05-07 16:26 50.08756 8.78585 3191 ft 187 kts 251°
2026-05-07 16:26 50.08296 8.76672 2935 ft 189 kts 251°
2026-05-07 16:27 50.07840 8.74759 2684 ft 186 kts 252°
2026-05-07 16:27 50.07396 8.72894 2442 ft 182 kts 252°
2026-05-07 16:27 50.06957 8.71057 2204 ft 180 kts 252°
2026-05-07 16:27 50.06523 8.69229 1956 ft 180 kts 253°
2026-05-07 16:28 50.06089 8.67403 1717 ft 180 kts 252°
2026-05-07 16:28 50.05664 8.65612 1462 ft 165 kts 252°
2026-05-07 16:28 50.05356 8.64330 1253 ft 95 kts 252°
2026-05-07 16:28 50.05152 8.63481 1141 ft 79 kts 253°
2026-05-07 16:29 50.04959 8.62667 1010 ft 82 kts 251°
2026-05-07 16:29 50.04757 8.61807 876 ft 86 kts 250°
2026-05-07 16:29 50.04549 8.60939 779 ft 84 kts 248°
2026-05-07 16:29 50.04337 8.60084 659 ft 86 kts 248°
2026-05-07 16:30 50.04144 8.59224 516 ft 83 kts 248°
2026-05-07 16:30 50.03949 8.58407 435 ft 78 kts 247°
2026-05-07 16:30 50.03759 8.57636 428 ft 75 kts 245°
2026-05-07 16:30 50.03576 8.56878 419 ft 76 kts 247°
2026-05-07 16:31 50.03385 8.56071 417 ft 82 kts 248°
2026-05-07 16:31 50.03181 8.55238 432 ft 83 kts 247°
2026-05-07 16:31 50.02981 8.54410 471 ft 82 kts 245°
2026-05-07 16:31 50.02786 8.53577 488 ft 83 kts 248°
2026-05-07 16:32 50.02600 8.52757 683 ft 75 kts 248°
2026-05-07 16:32 50.02428 8.51980 951 ft 83 kts 249°
2026-05-07 16:32 50.02206 8.51144 1249 ft 81 kts 249°
2026-05-07 16:32 50.01965 8.50367 1565 ft 78 kts 248°
2026-05-07 16:33 50.01799 8.49590 1846 ft 73 kts 283°
2026-05-07 16:33 50.02078 8.49021 2143 ft 67 kts 341°
2026-05-07 16:33 50.02526 8.48800 2400 ft 73 kts 343°
2026-05-07 16:33 50.03083 8.48534 2492 ft 91 kts 343°
2026-05-07 16:34 50.03720 8.48241 2572 ft 98 kts 343°
2026-05-07 16:34 50.04396 8.47944 2665 ft 110 kts 342°
2026-05-07 16:34 50.05194 8.47611 2808 ft 127 kts 343°
2026-05-07 16:34 50.06086 8.47241 2943 ft 138 kts 344°
2026-05-07 16:35 50.07050 8.47406 3075 ft 149 kts 26°
2026-05-07 16:35 50.07701 8.48701 3222 ft 160 kts 71°
2026-05-07 16:35 50.07628 8.50431 3361 ft 165 kts 110°
2026-05-07 16:35 50.07205 8.52103 3483 ft 167 kts 113°
2026-05-07 16:36 50.06761 8.53801 3568 ft 171 kts 113°
2026-05-07 16:36 50.06308 8.55528 3665 ft 173 kts 114°
2026-05-07 16:36 50.05860 8.57250 3767 ft 171 kts 113°
2026-05-07 16:36 50.05425 8.58952 3864 ft 172 kts 113°
2026-05-07 16:37 50.04978 8.60696 3970 ft 174 kts 113°
2026-05-07 16:37 50.04530 8.62450 4075 ft 175 kts 113°
2026-05-07 16:37 50.04083 8.64206 4180 ft 175 kts 113°
2026-05-07 16:37 50.03632 8.65964 4280 ft 175 kts 114°
2026-05-07 16:38 50.03184 8.67720 4384 ft 175 kts 114°
2026-05-07 16:38 50.02743 8.69485 4492 ft 175 kts 113°
2026-05-07 16:38 50.02306 8.71251 4534 ft 178 kts 114°
2026-05-07 16:38 50.01843 8.73093 4422 ft 186 kts 114°
2026-05-07 16:39 50.01361 8.74988 4312 ft 190 kts 113°
2026-05-07 16:39 50.00935 8.76949 4198 ft 194 kts 99°
2026-05-07 16:39 50.01082 8.79026 4088 ft 194 kts 76°
2026-05-07 16:39 50.01437 8.81057 3984 ft 195 kts 73°
2026-05-07 16:40 50.01800 8.83058 3966 ft 190 kts 73°
2026-05-07 16:40 50.02159 8.85023 3958 ft 188 kts 73°
2026-05-07 16:40 50.02517 8.86971 3949 ft 187 kts 73°
2026-05-07 16:40 50.02873 8.88908 3944 ft 186 kts 73°
2026-05-07 16:41 50.03229 8.90848 3929 ft 186 kts 73°
2026-05-07 16:41 50.03580 8.92782 3928 ft 186 kts 73°
2026-05-07 16:41 50.03935 8.94706 3913 ft 185 kts 73°
2026-05-07 16:41 50.04285 8.96620 3911 ft 186 kts 73°
2026-05-07 16:42 50.04641 8.98557 3893 ft 186 kts 73°
2026-05-07 16:42 50.05004 9.00504 3883 ft 188 kts 73°
2026-05-07 16:42 50.05385 9.02464 3864 ft 189 kts 66°
2026-05-07 16:42 50.06233 9.03949 3855 ft 184 kts 27°
2026-05-07 16:43 50.07439 9.04477 3857 ft 180 kts
2026-05-07 16:43 50.08678 9.04735 3854 ft 179 kts
2026-05-07 16:43 50.09920 9.04966 3853 ft 179 kts
2026-05-07 16:43 50.11151 9.04987 3846 ft 174 kts 341°
2026-05-07 16:44 50.12099 9.03961 3848 ft 165 kts 302°
2026-05-07 16:44 50.12644 9.02443 3850 ft 162 kts 294°
2026-05-07 16:44 50.13144 9.00881 3858 ft 160 kts 294°
2026-05-07 16:44 50.13611 8.99312 3855 ft 157 kts 283°
2026-05-07 16:45 50.13498 8.97699 3869 ft 150 kts 245°
2026-05-07 16:45 50.13057 8.96250 3874 ft 148 kts 245°
2026-05-07 16:45 50.12627 8.94739 3886 ft 156 kts 248°
2026-05-07 16:45 50.12222 8.93141 3893 ft 160 kts 249°
2026-05-07 16:46 50.11821 8.91513 3904 ft 162 kts 250°
2026-05-07 16:46 50.11431 8.89845 3913 ft 164 kts 250°
2026-05-07 16:46 50.11033 8.88171 3921 ft 165 kts 250°
2026-05-07 16:46 50.10635 8.86495 3929 ft 165 kts 250°
2026-05-07 16:47 50.10236 8.84819 3936 ft 164 kts 250°
2026-05-07 16:47 50.09836 8.83135 3828 ft 170 kts 251°
2026-05-07 16:47 50.09422 8.81385 3610 ft 177 kts 250°
2026-05-07 16:47 50.08986 8.79573 3381 ft 181 kts 250°
2026-05-07 16:48 50.08544 8.77716 3141 ft 184 kts 250°
2026-05-07 16:48 50.08098 8.75842 2910 ft 185 kts 251°
2026-05-07 16:48 50.07650 8.73961 2665 ft 185 kts 252°
2026-05-07 16:48 50.07198 8.72066 2420 ft 187 kts 252°
2026-05-07 16:49 50.06744 8.70160 2175 ft 188 kts 253°
2026-05-07 16:49 50.06295 8.68269 1931 ft 189 kts 253°
2026-05-07 16:49 50.05838 8.66359 1670 ft 188 kts 252°
2026-05-07 16:49 50.05386 8.64454 1362 ft 185 kts 252°
2026-05-07 16:50 50.04952 8.62623 1066 ft 160 kts 251°
2026-05-07 16:50 50.04669 8.61437 877 ft 96 kts 251°
2026-05-07 16:50 50.04425 8.60442 736 ft 104 kts 250°
2026-05-07 16:50 50.04192 8.59363 642 ft 103 kts 252°
2026-05-07 16:51 50.03920 8.58283 442 ft 107 kts 247°
2026-05-07 16:51 50.03662 8.57210 374 ft 105 kts 248°
2026-05-07 16:51 50.03416 8.56180 360 ft 101 kts 246°
2026-05-07 16:51 50.03220 8.55336 338 ft 67 kts 248°
2026-05-07 16:52 50.03078 8.54748 333 ft 63 kts 248°
2026-05-07 16:52 50.02892 8.54015 328 ft 65 kts 257°
2026-05-07 16:52 50.02745 8.53509 331 ft 32 kts 201°
2026-05-07 16:52 50.02668 8.53518 331 ft 6 kts 15°
2026-05-07 16:53 50.02661 8.53515 331 ft 10 kts 162°
2026-05-07 16:53 50.02507 8.53536 329 ft 28 kts 239°
2026-05-07 16:53 50.02417 8.53167 329 ft 42 kts 251°
2026-05-07 16:53 50.02306 8.52836 330 ft 23 kts 200°
2026-05-07 16:54 50.02190 8.52830 328 ft 5 kts 178°
2026-05-07 16:54 50.02193 8.52832 328 ft 6 kts 181°
2026-05-07 16:54 50.02192 8.52835 328 ft 4 kts 154°
2026-05-07 16:54 50.02147 8.52940 330 ft 18 kts 81°
2026-05-07 16:55 50.02194 8.53083 329 ft 16 kts 31°
2026-05-07 16:55 50.02251 8.53076 328 ft 0 kts 346°